Lamoni, IA

2:03 AM CST on January 20, 2018 (GMT -0600)
Lamoni Municipal

Weather History for KLWD - February, 2015

Change the Weather History Date:

Tuesday, February 10, 2015

  Actual Average Record
Temperature  
Mean Temperature 30 °F 27 °F  
Max Temperature 37 °F 36 °F 68 °F (1999)
Min Temperature 22 °F 18 °F -10 °F (1981)
Degree Days  
Heating Degree Days 35 38  
Month to date heating degree days 429 391  
Since 1 July heating degree days 3979 4083  
Cooling Degree Days 0 0  
Month to date cooling degree days 0 0  
Year to date cooling degree days 0 0  
Moisture  
Dew Point 25 °F    
Average Humidity 83    
Maximum Humidity 96    
Minimum Humidity 70    
Precipitation  
Precipitation 0.00 in 0.06 in 0.57 in (1988)
Month to date precipitation 0.61 0.48  
Sea Level Pressure  
Sea Level Pressure 30.12 in    
Wind  
Wind Speed 6 mph (SSE)    
Max Wind Speed 14 mph    
Max Gust Speed 19 mph    
Visibility 9 miles    
Events      
T = Trace of Precipitation, MM = Missing Value Source: NWS Daily Summary

Daily Weather History Graph

Daily Weather History Graph

Search for Another Location

Airport or City:

Trip Planner

Search our weather history database for the weather conditions in past years. The results will help you decide how hot, cold, wet, or windy it might be!

Date:

Astronomy

Feb. 10, 2015 Rise Set
Actual Time 7:15 AM CST 5:44 PM CST
Civil Twilight 6:47 AM CST 6:12 PM CST
Nautical Twilight 6:15 AM CST 6:44 PM CST
Astronomical Twilight 5:43 AM CST 7:16 PM CST
Moon No Moon Rise 10:26 AM CST (2/10)
Length of Visible Light 11h 25m
Length of Day
10h 28m
Waning Gibbous, 64% of the Moon is Illuminated
Feb 10
Waning Gibbous
Feb 11
Last Quarter
Feb 18
New
Feb 25
First Quarter
Mar 5
Full

Hourly Weather History & Observations

Time (CST) Temp. Windchill Dew Point Humidity Pressure Visibility Wind Dir Wind Speed Gust Speed Precip Events Conditions
12:50 AM 28.4 °F 23.3 °F 21.2 °F 74% 30.18 in 10.0 mi ESE 4.6 mph - N/A   Scattered Clouds
12:53 AM 28.0 °F 22.8 °F 21.9 °F 78% 30.22 in 10.0 mi SE 4.6 mph - N/A   Partly Cloudy
1:53 AM 26.1 °F 19.4 °F 21.0 °F 81% 30.22 in 10.0 mi SSE 5.8 mph - N/A   Clear
2:53 AM 25.0 °F 17.1 °F 21.9 °F 88% 30.21 in 7.0 mi SE 6.9 mph - N/A   Clear
3:53 AM 24.1 °F 16.0 °F 21.0 °F 88% 30.19 in 6.0 mi SE 6.9 mph - N/A   Clear
4:53 AM 23.0 °F 15.8 °F 21.0 °F 92% 30.19 in 6.0 mi SE 5.8 mph - N/A   Clear
5:53 AM 21.9 °F 13.4 °F 19.9 °F 92% 30.19 in 6.0 mi SE 6.9 mph - N/A   Clear
6:53 AM 21.9 °F 12.5 °F 19.9 °F 92% 30.18 in 6.0 mi SE 8.1 mph - N/A   Clear
7:53 AM 21.9 °F 14.5 °F 19.9 °F 92% 30.19 in 6.0 mi SE 5.8 mph - N/A   Clear
8:53 AM 24.1 °F 14.4 °F 19.9 °F 84% 30.17 in 7.0 mi SSE 9.2 mph - N/A   Clear
9:53 AM 26.1 °F 16.8 °F 21.0 °F 81% 30.15 in 9.0 mi SSE 9.2 mph - N/A   Scattered Clouds
10:53 AM 28.9 °F 21.9 °F 23.0 °F 78% 30.16 in 10.0 mi South 6.9 mph - N/A   Clear
11:53 AM 30.9 °F 22.8 °F 24.1 °F 76% 30.13 in 10.0 mi South 9.2 mph - N/A   Clear
12:53 PM 33.1 °F 25.5 °F 26.1 °F 75% 30.09 in 10.0 mi South 9.2 mph - N/A   Clear
1:53 PM 35.1 °F 27.4 °F 27.0 °F 72% 30.06 in 10.0 mi South 10.4 mph - N/A   Mostly Cloudy
2:53 PM 36.0 °F 29.6 °F 28.0 °F 73% 30.04 in 10.0 mi SSE 8.1 mph - N/A   Overcast
3:53 PM 37.0 °F 32.4 °F 28.0 °F 70% 30.02 in 10.0 mi SSE 5.8 mph - N/A   Clear
4:53 PM 37.0 °F 31.6 °F 28.9 °F 73% 30.01 in 10.0 mi South 6.9 mph - N/A   Clear
5:53 PM 36.0 °F 29.6 °F 30.0 °F 79% 30.01 in 10.0 mi South 8.1 mph - N/A   Clear
6:53 PM 35.1 °F 29.3 °F 30.0 °F 82% 30.02 in 10.0 mi South 6.9 mph - N/A   Clear
7:53 PM 34.0 °F 29.8 °F 28.9 °F 82% 30.04 in 10.0 mi South 4.6 mph - N/A   Clear
8:53 PM 33.1 °F - 28.9 °F 85% 30.06 in 8.0 mi Calm Calm - N/A   Clear
9:53 PM 30.9 °F - 28.0 °F 89% 30.07 in 8.0 mi Calm Calm - N/A   Clear
10:53 PM 32.0 °F 28.7 °F 28.9 °F 88% 30.07 in 9.0 mi WSW 3.5 mph - N/A   Partly Cloudy
11:53 PM 30.0 °F 24.1 °F 27.0 °F 88% 30.10 in 7.0 mi WNW 5.8 mph - N/A   Mostly Cloudy